Regional Weather Roundup
Issued by NWS

Home | Current Version | Previous Version | Text Only | Print | Product List | Glossary On
Versions: 1 2 3 4 5 6 7 8 9 10 11 12 13 14 15 16 17 18 19 20 21 22 23 24 25 26 27 28 29 30 31 32 33 34 35 36 37 38 39 40 41 42 43 44 45 46 47 48 49 50
000
ASUS44 KLUB 251001
RWRTX
WEST TEXAS WEATHER ROUNDUP
NATIONAL WEATHER SERVICE LUBBOCK TX
500 AM CDT MON JUL 25 2016

NOTE: "FAIR" INDICATES FEW OR NO CLOUDS BELOW 12,000 FEET WITH NO
SIGNIFICANT WEATHER AND/OR OBSTRUCTIONS TO VISIBILITY.

TXZ004-006>008-010-012-014-016-OKZ002-251100-
TEXAS PANHANDLE/OKLAHOMA PANHANDLE

CITY           SKY/WX    TMP DP  RH WIND       PRES   REMARKS
AMARILLO       CLEAR     71  63  75 E10       30.12F
BORGER         CLEAR     73  67  81 NE5       30.10R
CANADIAN       CLOUDY    75  69  80 E5        30.07F
DALHART        CLOUDY    70  63  78 NE9       30.18F
DUMAS          PTCLDY    68  62  83 N6        30.15S
GUYMON         CLOUDY    69  66  90 NE7       30.11F
HEREFORD       MOCLDY    70  62  74 N7        30.14R
PAMPA          CLOUDY    71  67  88 E12       30.11F
PERRYTON       CLOUDY    71  68  91 E6        30.09F
$$

TXZ026-029-035-045-048-251100-
SOUTHERN PANHANDLE/SOUTH PLAINS/ROLLING PLAINS

CITY           SKY/WX    TMP DP  RH WIND       PRES   REMARKS
CHILDRESS      CLOUDY    79  65  62 S3        30.00R
SEMINOLE       CLEAR     74  58  55 CALM      30.08S
LUBBOCK        CLEAR     75  60  59 SE5       30.07S
PLAINVIEW      CLEAR     69  60  73 NW6       30.08R
SNYDER           N/A     78  63  60 SE6       30.02S
$$

TXZ052-054-060>062-072-078-127-140-154-169-251100-
PERMIAN BASIN/CONCHO VALLEY/BIG COUNTRY/EDWARDS PLATEAU

CITY           SKY/WX    TMP DP  RH WIND       PRES   REMARKS
ABILENE        CLEAR     79  65  62 S6        29.99S
BIG SPRING     CLEAR     80  62  54 SE7       30.03F
JUNCTION       CLEAR     79  67  66 CALM      29.99S
MIDLAND        CLEAR     80  59  48 SE7       30.03S
ODESSA         CLEAR     82  59  45 S7        30.04S
SAN ANGELO     CLEAR     76  64  66 W3        29.98S
SONORA         CLEAR     81  68  65 SE5       30.05S
SWEETWATER     CLEAR     77  64  62 S8        30.03F
WINK           CLEAR     82  60  47 SE10      30.00S
$$

TXZ055-058-074-075-080-082-251100-
FAR WEST/SOUTHWEST MOUNTAINS/TRANS PECOS

CITY           SKY/WX    TMP DP  RH WIND       PRES   REMARKS
ALPINE         CLEAR     74  58  56 E5        30.17S
DRYDEN           N/A     82  70  66 E8        29.97R
EL PASO        MOCLDY    85  52  32 N9        30.05R
FORT STOCKTON  CLEAR     79  62  56 SE9       30.02S
GUADALUPE PASS CLEAR     74  53  48 E14       30.21S
MARFA          PTCLDY    68  56  65 NE6       30.16S
PECOS          CLEAR     78  58  50 E6        29.99S
PRESIDIO       FAIR      85  60  41 NE8G18    29.97R
$$

TXZ014-016-019-021>030-083-251100
TEXAS TECH WEST TEXAS MESONET/TEXAS PANHANDLE/NORTHERN SOUTH PLAINS

CITY           SKY/WX    TMP DP  RH WIND       PRES   REMARKS
ABERNATHY 5ENE   N/A     69  61  74 SW2       30.10S
AMARILLO 9NNE    N/A     72  64  77 N7        30.13R
AMARILLO 7SSE    N/A     70  63  78 E8        30.13F
AMHERST 1NE      N/A     69  57  65 CALM      30.12S
BOOTLEG 11WNW    N/A     69  59  69 N10       30.21S
CANADIAN 6E      N/A     73  66  80 NE14      30.06F
CAPROCK CYN SP   N/A     78  61  56 SW3       30.07R
CHILDRESS 2NNE   N/A     78  65  63 S5        30.01S
CLARENDON 2WSW   N/A     72  63  73 N1        30.09S
CLAUDE 12SW      N/A     69  63  80 NE8       30.12F
DIMMITT 2NE      N/A     68  57  68 NE7       30.14S
FLOYDADA 2NNE    N/A     73  60  63 S7        30.08R
FRIONA 2NE       N/A     65  58  76 NW2       30.17S
GOODLETT 3W      N/A     78  65  64 S1        29.99R
HART 3N          N/A     67  59  76 N5        30.13S
HEREFORD 2NW     N/A     68  58  69 N8        30.17R
MCLEAN 1E        N/A     74  64  70 NE10      30.10R
MEMPHIS 1NE      N/A     78  67  68 N6        30.04R
MULESHOE 2SSW    N/A     65  57  74 CALM      30.14S
OLTON 6S         N/A     71  58  62 W5        30.11F
PALO DURO SP     N/A     74  62  66 E5        30.13F
PAMPA 2E         N/A     70  65  85 E12       30.12S
PLAINVIEW 1S     N/A     73  61  67 W6        30.10R
SILVERTON 7ESE   N/A     71  60  67 SW3       30.08S
TULIA 2ENE       N/A     69  58  68 NW3       30.12S
TURKEY 2WSW      N/A     74  63  69 NW7       30.05R
UMBARGER 3NNE    N/A     71  61  71 E5        30.15S
$$

TXZ033>036-039>041-045>048-251100
TEXAS TECH WEST TEXAS MESONET/SOUTH PLAINS

CITY           SKY/WX    TMP DP  RH WIND       PRES   REMARKS
AIKEN 3WSW       N/A     70  63  80 SW2       30.10S
ANDREWS 2NE      N/A     77  56  48 SE5       30.07S
ANTON 6SSW       N/A     69  59  71 NW8       30.09S
BROWNFIELD 2S    N/A     73  58  60 SE6       30.08S
DENVR CTY 7WNW   N/A     72  55  56 SE5       30.10S
GAIL 2ESE        N/A     74  62  65 CALM      30.03R
LAMESA 2SE       N/A     75  60  59 E3        30.06R
LEVELLAND 4S     N/A     69  56  65 SE1       30.10S
LUBBOCK 3WNW     N/A     77  58  51 SE5       30.09R
MORTON 1ENE      N/A     74  57  54 S2        30.12F
ODONNELL 1N      N/A     76  57  50 SE7       30.06S
PLAINS 3N        N/A     72  56  56 SE6       30.11S
RALLS 1SE        N/A     73  59  63 SE3       30.08S
REESE CENTER     N/A     73  58  59 S5        30.09S
SEAGRAVES 1SW    N/A     74  59  59 SE3       30.08S
SEMINOLE 2NNE    N/A     73  57  57 SE3       30.08R
SLATON 2NE       N/A     74  59  59 SE6       30.07F
SNYDER 3E        N/A     78  62  59 SE8       30.01F
SUNDOWN 8SW      N/A     69  56  63 SE7       30.10S
TAHOKA 3NNE      N/A     73  59  62 S5        30.07S
WOLFFORTH 6SSW   N/A     73  58  58 SE3       30.09S
$$

TXZ031-032-036>038-042>044-251100-
TEXAS TECH WEST TEXAS MESONET/ROLLING PLAINS

CITY           SKY/WX    TMP DP  RH WIND       PRES   REMARKS
ASPERMONT 3NE    N/A     79  62  56 SE7       29.98F
FLUVANNA 3WNW    N/A     77  60  54 SE7       30.04S
GRAHAM 5SSW      N/A     78  60  53 S7        30.05S
GUTHRIE 10WSW    N/A     74  61  62 CALM      30.00R
HASKELL 1NW      N/A     79  62  55 SE5       29.98S
JAYTON 1SSE      N/A     76  62  60 SE5       29.99S
KNOX CITY 3NW    N/A     78  62  57 SE9       29.97S
LK A HENRY 1NW   N/A     81  60  49 SW5       30.02R
NORTHFIELD 1S    N/A     77  64  63 S2        30.01S
PADUCAH 10SW     N/A     74  63  68 S8        30.00S
POST 1NE         N/A     80  59  48 S6        30.03S
RRING SPRGS 3N   N/A     74  63  69 S7        30.05R
SEYMOUR 3NW      N/A     79  65  62 S7        29.96F
SPUR 1W          N/A     74  62  67 N1        30.02R
WHITE RVR 6NE    N/A     79  59  50 SE3       30.04S
$$

TXZ052-054-060>062-072-078-127-140-154-169-251100-
TEXAS TECH WEST TEXAS MESONET/PERMIAN BASIN/
CONCHO VALLEY/BIG COUNTRY/EDWARDS PLATEAU

CITY           SKY/WX    TMP DP  RH WIND       PRES   REMARKS
COYANOSA 2N      N/A     80  61  53 E8        30.01S
JUNCTION 1SSW    N/A     75  67  75 S3        30.00S
MERTZON 3NNE     N/A     78  64  62 S7        30.02S
SAN ANGELO 7NW   N/A     77  59  55 NE3       30.00S
STRLNG CT 4WSW   N/A     70  59  68 CALM      30.03S
ST LAWRNCE 5SW   N/A     74  58  56 SE6       30.04S
SWEETWATR 11SW   N/A     76  64  65 SE8       30.04S
WALL 1E          N/A     77  62  59 SE3       30.01R
$$

TXZ055-058-074-075-080-082-251100-
TEXAS TECH WEST TEXAS MESONET/FAR WEST/SOUTHWEST MOUNTAINS/TRANS PECOS

CITY           SKY/WX    TMP DP  RH WIND       PRES   REMARKS
PRSMN GAP BBNP   N/A     83  60  46 N13       30.00S
GUADLPE MTN NP   N/A     74  51  44 N2        30.24S
$$




USA.gov is the U.S. government's official web portal to all federal, state and local government web resources and services.